This is the latest recevied weather packets stored in our database for station/object PU3WIW-13. If no packets are shown the sender has not sent any weather packets the latest 10 day(s).
| Time | Temp. | Humidity | Pressure | Rain* | Wind** | Luminosity | Snow |
|---|---|---|---|---|---|---|---|
| 1777808992 | 8.89° C | 10% | 1016.1 hPa | 0 mm | - | - | - |
| 1777808813 | 9.44° C | 10% | 1016 hPa | 0 mm | - | - | - |
| 1777808632 | 9.44° C | 10% | 1016.1 hPa | 0 mm | - | - | - |
| 1777808452 | 9.44° C | 10% | 1016.1 hPa | 0 mm | - | - | - |
| 1777808273 | 9.44° C | 10% | 1016 hPa | 0 mm | - | - | - |
| 1777808092 | 8.89° C | 10% | 1016 hPa | 0 mm | - | - | - |
| 1777807912 | 8.33° C | 10% | 1016.1 hPa | 0 mm | - | - | - |
| 1777807733 | 7.78° C | 10% | 1016.1 hPa | 0 mm | - | - | - |
| 1777807553 | 7.78° C | 10% | 1016.1 hPa | 0 mm | - | - | - |
| 1777807372 | 8.33° C | 10% | 1016.1 hPa | 0 mm | - | - | - |
| 1777807193 | 8.89° C | 10% | 1016 hPa | 0 mm | - | - | - |
| 1777807013 | 8.89° C | 10% | 1016.1 hPa | 0 mm | - | - | - |
| 1777806832 | 8.89° C | 10% | 1016 hPa | 0 mm | - | - | - |
| 1777806653 | 9.44° C | 10% | 1015.7 hPa | 0 mm | - | - | - |
| 1777806472 | 9.44° C | 10% | 1015.9 hPa | 0 mm | - | - | - |
| 1777806292 | 9.44° C | 10% | 1016 hPa | 0 mm | - | - | - |
| 1777806111 | 8.89° C | 10% | 1016 hPa | 0 mm | - | - | - |
| 1777805933 | 8.89° C | 10% | 1015.9 hPa | 0 mm | - | - | - |
| 1777805752 | 8.89° C | 10% | 1015.7 hPa | 0 mm | - | - | - |
| 1777805571 | 8.89° C | 10% | 1015.6 hPa | 0 mm | - | - | - |
| 1777805392 | 8.33° C | 10% | 1015.7 hPa | 0 mm | - | - | - |
| 1777805212 | 8.33° C | 10% | 1015.7 hPa | 0 mm | - | - | - |
| 1777805031 | 8.33° C | 10% | 1015.7 hPa | 0 mm | - | - | - |
| 1777804852 | 8.33° C | 10% | 1015.6 hPa | 0 mm | - | - | - |
| 1777804672 | 8.33° C | 10% | 1015.6 hPa | 0 mm | - | - | - |
* Rain latest hour (hover to see other rain measurements)
** Current wind speed in m/s (hover to see current wind gust speed)